This is the latest recevied weather packets stored in our database for station/object K3HM. If no packets are shown the sender has not sent any weather packets the latest 10 day(s).
| Time | Temp. | Humidity | Pressure | Rain* | Wind** | Luminosity | Snow |
|---|---|---|---|---|---|---|---|
| 1777468089 | 10.56° C | 99% | 1012.8 hPa | 0 mm | - | 36 W/m² | - |
| 1777467786 | 10.56° C | 99% | 1012.8 hPa | 0 mm | - | 32 W/m² | - |
| 1777467481 | 10.56° C | 99% | 1012.8 hPa | 0 mm | - | 30 W/m² | - |
| 1777467177 | 10° C | 99% | 1012.5 hPa | 0 mm | - | 30 W/m² | - |
| 1777466874 | 10° C | 99% | 1012.9 hPa | 0 mm | - | 28 W/m² | - |
| 1777466572 | 10° C | 99% | 1012.9 hPa | 0 mm | - | 30 W/m² | - |
| 1777466268 | 9.44° C | 99% | 1013.1 hPa | 0 mm | - | 30 W/m² | - |
| 1777465964 | 9.44° C | 99% | 1013.1 hPa | 0 mm | - | 16 W/m² | - |
| 1777465661 | 9.44° C | 99% | 1013 hPa | 0 mm | - | 30 W/m² | - |
| 1777465357 | 9.44° C | 99% | 1013 hPa | 0 mm | - | 25 W/m² | - |
| 1777465055 | 9.44° C | 99% | 1013.1 hPa | 0 mm | - | 23 W/m² | - |
| 1777464751 | 10° C | 99% | 1013 hPa | 0 mm | - | 18 W/m² | - |
| 1777464448 | 10° C | 99% | 1013.1 hPa | 0 mm | - | 23 W/m² | - |
| 1777464143 | 10° C | 99% | 1012.9 hPa | 0 mm | - | 20 W/m² | - |
| 1777463843 | 10° C | 99% | 1013 hPa | 0 mm | - | 17 W/m² | - |
| 1777463539 | 10° C | 99% | 1013.3 hPa | 0 mm | - | 20 W/m² | - |
| 1777463234 | 10° C | 99% | 1013 hPa | 0 mm | - | 12 W/m² | - |
| 1777462930 | 10° C | 99% | 1013.2 hPa | 0 mm | - | 9 W/m² | - |
| 1777462626 | 10° C | 99% | 1013.4 hPa | 0 mm | - | 13 W/m² | - |
| 1777462322 | 10° C | 99% | 1013.4 hPa | 0 mm | - | 13 W/m² | - |
| 1777462018 | 10.56° C | 99% | 1013.4 hPa | 0 mm | - | 24 W/m² | - |
| 1777461715 | 10.56° C | 99% | 1013.5 hPa | 0 mm | - | 29 W/m² | - |
| 1777461410 | 10.56° C | 99% | 1013.5 hPa | 0 mm | - | 30 W/m² | - |
| 1777461107 | 10.56° C | 99% | 1014 hPa | 0 mm | - | 26 W/m² | - |
| 1777460802 | 10.56° C | 99% | 1013.7 hPa | 0 mm | - | 24 W/m² | - |
* Rain latest hour (hover to see other rain measurements)
** Current wind speed in m/s (hover to see current wind gust speed)